Tracking 29781 objects as of 15-Oct-2024
HD Live streaming from Space Station
objects crossing your sky now

DELTA 1 DEB

Track DELTA 1 DEB now!
10-day predictions


NORAD ID: 21276
Int'l Code: 1975-052M
Perigee: 1,098.4 km
Apogee: 1,168.2 km
Inclination: 100.1 °
Period: 107.8 minutes
Semi major axis: 7504 km
RCS: 1.9671 m2 (large)
Launch date: June 12, 1975
Source: United States (US)
Launch site: AIR FORCE WESTERN TEST RANGE (AFWTR)

Note: This is SATELLITE DEBRIS
Your satellite tracking list
Your tracking list is empty




NASA's NSSDC Master Catalog

Two Line Element Set (TLE):
1 21276U 75052M   24288.52815963  .00000087  00000-0  25708-3 0  9990
2 21276 100.0513 188.0295 0046487 128.0308  45.3217 13.35481973630212
Source of the keplerian elements: AFSPC